• Join FlightAware (Why Join?)
  • Login
  • US Flag 
03:19AM EDT


 

Airport Tracker/Info


-or-


 

Live Flight TrackerFlight Track Log ✈ FLG3778 ✈ 28-Apr-2012 ✈ KCOU - KMEM

Flight Track Log - Related Links

Times and Time Zones

All times are in EDT time to prevent confusion due to time zone crossing. See the FLG3778 flight status page for this flight to view local times or setup timezone preferences in your user account.

Time Position Orientation Groundspeed Altitude Reporting Facility
EDT Latitude Longitude Course Direction KTS MPH feet Rate Location/Type
08:43AM 38.7439 -92.2089 160° South 165 190 3,700  Level Kansas City Center
08:44AM 38.6808 -92.1789 159° South 199 229 5,400 1,860 Climbing Kansas City Center
08:45AM 38.6197 -92.1489 159° South 238 274 7,500 2,280 Climbing Kansas City Center
08:46AM 38.5481 -92.1142 159° South 259 298 10,000 1,800 Climbing Kansas City Center
08:47AM 38.4681 -92.0742 159° South 291 335 11,200 1,440 Climbing Kansas City Center
08:48AM 38.3775 -92.0294 158° South 323 372 12,900 1,620 Climbing Kansas City Center
08:49AM 38.2847 -91.9825 160° South 345 397 14,500 1,620 Climbing Kansas City Center
08:50AM 38.1858 -91.9356 158° South 365 420 16,200 1,680 Climbing Kansas City Center
08:51AM 38.0886 -91.8861 160° South 376 433 17,900 1,620 Climbing Kansas City Center
08:52AM 37.9897 -91.8394 159° South 376 433 19,500 1,440 Climbing Kansas City Center
08:53AM 37.8883 -91.7906 159° South 376 433 20,800 1,140 Climbing Kansas City Center
08:54AM 37.7892 -91.7414 160° South 376 433 21,800 1,260 Climbing Kansas City Center
08:55AM 37.6839 -91.6931 159° South 382 440 23,400 1,140 Climbing Kansas City Center
08:57AM 37.4758 -91.5928 160° South 392 451 25,400 1,020 Climbing Memphis Center
08:58AM 37.3639 -91.5417 159° South 392 451 26,500 780 Climbing Memphis Center
08:59AM 37.2581 -91.4906 161° South 402 463 27,000 240 Climbing Memphis Center
09:00AM 37.1481 -91.4422 158° South 408 470 27,000  Level Memphis Center
09:01AM 37.0444 -91.3886 161° South 408 470 27,000  Level Memphis Center
09:02AM 36.9364 -91.3431 159° South 408 470 27,000  Level Memphis Center
09:03AM 36.8306 -91.2928 160° South 408 470 27,000  Level Memphis Center
09:04AM 36.7244 -91.2447 158° South 408 470 27,000  Level Memphis Center
09:05AM 36.6228 -91.1947 159° South 408 470 27,000  Level Memphis Center
09:06AM 36.5128 -91.1419 162° South 414 476 27,000 -420 Level Memphis Center
09:07AM 36.3983 -91.0944 158° South 421 484 26,200 -900 Descending Memphis Center
09:08AM 36.2922 -91.0419 159° South 426 490 25,200 -1,020 Descending Memphis Center
09:09AM 36.1883 -90.9922 161° South 419 482 24,200 -600 Descending Memphis Center
09:10AM 36.0842 -90.9478 159° South 405 466 24,000 -720 Descending Memphis Center
09:11AM 35.9781 -90.8983 158° South 405 466 22,800 -1,800 Descending Memphis Center
09:12AM 35.8742 -90.8464 159° South 405 466 20,400 -2,460 Descending Memphis Center
09:13AM 35.7783 -90.8022 150° Southeast 405 466 17,900 -2,580 Descending Memphis Center
09:14AM 35.6889 -90.7378 147° Southeast 385 443 15,300 -2,580 Descending Memphis Center
09:15AM 35.6078 -90.6736 150° Southeast 359 413 12,800 -2,520 Descending Memphis Center
09:16AM 35.5244 -90.6147 147° Southeast 353 406 10,300 -1,440 Descending Memphis Center
09:17AM 35.4433 -90.5508 124° Southeast 353 406 10,000 -300 Descending Memphis Center
09:18AM 35.3953 -90.4639 86° East 313 360 9,700 -660 Descending Memphis Center
09:19AM 35.4017 -90.3569 86° East 285 328 8,700 -960 Descending Memphis Center
09:20AM 35.4078 -90.2603 85° East 285 328 7,800 -1,080 Descending Memphis Center
09:21AM 35.4139 -90.1786 92° East 273 314 6,600 -900 Descending Memphis Center
09:22AM 35.4117 -90.0894 98° East 268 308 6,000 -540 Descending Memphis Center
09:23AM 35.4031 -90.0106 160° South 247 284 5,600 -720 Descending Memphis Center
09:24AM 35.3531 -89.9878 170° South 164 189 4,600 -720 Descending Memphis Center
09:25AM 35.3333 -89.9833 195° South 171 197 4,500 -360 Descending Anchorage Center
09:26AM 35.2833 -90.0000 158° South 162 186 4,100 -240 Descending Anchorage Center
09:27AM 35.2500 -89.9833 180° South 169 194 4,100 -480 Level Anchorage Center
09:28AM 35.2000 -89.9833 180° South 170 196 3,200 -960 Descending Anchorage Center
09:29AM 35.1500 -89.9833 180° South 155 178 2,300 -960 Descending Anchorage Center
09:29AM 35.1167 -89.9833 180° South 142 163 1,700 -960 Descending Anchorage Center